Time,TemperatureF,DewpointF,PressureIn,WindDirection,WindDirectionDegrees,WindSpeedMPH,WindSpeedGustMPH,Humidity,HourlyPrecipIn,Conditions,Clouds,dailyrainin,SoftwareType,DateUTC
2015-05-28 00:03:00,71.2,69.8,30.16,NE,50,0.0,0.0,95,0.00,,,0.00,meteobridge,2015-05-28 05:03:00,
2015-05-28 00:08:00,71.2,69.8,30.16,NE,50,0.0,0.0,95,0.00,,,0.00,meteobridge,2015-05-28 05:08:00,
2015-05-28 00:13:00,71.2,69.8,30.16,NE,49,0.0,0.0,95,0.00,,,0.00,meteobridge,2015-05-28 05:13:00,
2015-05-28 00:18:00,71.1,69.8,30.16,East,86,0.0,0.0,96,0.00,,,0.00,meteobridge,2015-05-28 05:18:00,
2015-05-28 00:23:00,71.1,69.8,30.15,East,87,0.0,0.0,96,0.00,,,0.00,meteobridge,2015-05-28 05:23:00,
2015-05-28 00:28:00,71.1,69.8,30.16,ESE,113,0.0,2.0,96,0.00,,,0.00,meteobridge,2015-05-28 05:28:00,
2015-05-28 00:33:00,70.9,69.6,30.15,East,99,0.9,2.0,96,0.00,,,0.00,meteobridge,2015-05-28 05:33:00,
2015-05-28 00:38:00,70.9,69.6,30.15,ESE,108,0.0,2.0,96,0.00,,,0.00,meteobridge,2015-05-28 05:38:00,
2015-05-28 00:43:00,70.9,69.4,30.15,East,79,2.0,2.0,95,0.00,,,0.00,meteobridge,2015-05-28 05:43:00,
2015-05-28 00:48:00,70.9,69.4,30.15,ENE,77,0.0,2.0,95,0.00,,,0.00,meteobridge,2015-05-28 05:48:00,
2015-05-28 00:53:00,70.9,69.4,30.15,NE,37,0.0,1.0,95,0.00,,,0.00,meteobridge,2015-05-28 05:53:00,
2015-05-28 00:58:00,70.9,69.4,30.15,North,0,0.0,1.0,95,0.00,,,0.00,meteobridge,2015-05-28 05:58:00,
2015-05-28 01:03:00,70.9,69.4,30.14,NW,314,0.0,0.0,95,0.00,,,0.00,meteobridge,2015-05-28 06:03:00,
2015-05-28 01:08:00,70.9,69.1,30.14,NNE,19,0.0,1.0,94,0.00,,,0.00,meteobridge,2015-05-28 06:08:00,
2015-05-28 01:13:00,70.9,69.1,30.14,North,4,0.0,0.0,94,0.00,,,0.00,meteobridge,2015-05-28 06:13:00,
2015-05-28 01:18:00,70.7,68.9,30.14,NE,51,0.0,1.0,94,0.00,,,0.00,meteobridge,2015-05-28 06:18:00,
2015-05-28 01:23:00,70.7,68.9,30.14,NW,309,0.0,1.0,94,0.00,,,0.00,meteobridge,2015-05-28 06:23:00,
2015-05-28 01:28:00,70.5,68.7,30.13,NNW,338,0.0,0.0,94,0.00,,,0.00,meteobridge,2015-05-28 06:28:00,
2015-05-28 01:34:00,70.3,68.9,30.13,NNW,337,0.0,0.0,95,0.00,,,0.00,meteobridge,2015-05-28 06:34:00,
2015-05-28 01:39:00,70.3,68.9,30.13,NNW,338,0.0,0.0,95,0.00,,,0.00,meteobridge,2015-05-28 06:39:00,
2015-05-28 01:44:00,70.2,68.7,30.13,NNW,337,0.0,0.0,95,0.00,,,0.00,meteobridge,2015-05-28 06:44:00,
2015-05-28 01:49:00,70.0,68.5,30.12,NNE,18,0.0,1.0,95,0.00,,,0.00,meteobridge,2015-05-28 06:49:00,
2015-05-28 01:54:00,69.8,68.4,30.12,NE,41,0.0,1.0,95,0.00,,,0.00,meteobridge,2015-05-28 06:54:00,
2015-05-28 01:59:00,69.6,68.4,30.12,NNE,25,0.0,0.0,96,0.00,,,0.00,meteobridge,2015-05-28 06:59:00,
2015-05-28 02:04:00,69.6,68.4,30.12,NNW,338,0.0,0.0,96,0.00,,,0.00,meteobridge,2015-05-28 07:04:00,
2015-05-28 02:09:00,69.6,68.2,30.12,ENE,72,0.0,0.0,95,0.00,,,0.00,meteobridge,2015-05-28 07:09:00,
2015-05-28 02:14:00,69.6,68.2,30.11,NW,317,0.0,0.0,95,0.00,,,0.00,meteobridge,2015-05-28 07:14:00,
2015-05-28 02:19:00,69.6,68.4,30.11,East,96,0.0,1.0,96,0.00,,,0.00,meteobridge,2015-05-28 07:19:00,
2015-05-28 02:24:00,69.6,68.4,30.11,NNW,336,0.0,0.0,96,0.00,,,0.00,meteobridge,2015-05-28 07:24:00,
2015-05-28 02:29:00,69.4,68.2,30.11,NE,47,0.0,0.0,96,0.00,,,0.00,meteobridge,2015-05-28 07:29:00,
2015-05-28 02:34:00,69.4,68.2,30.11,SSE,156,0.0,2.0,96,0.00,,,0.00,meteobridge,2015-05-28 07:34:00,
2015-05-28 02:39:00,69.4,68.2,30.11,East,89,0.0,1.0,96,0.00,,,0.00,meteobridge,2015-05-28 07:39:00,
2015-05-28 02:44:00,69.4,68.2,30.10,NNW,331,0.0,0.0,96,0.00,,,0.00,meteobridge,2015-05-28 07:44:00,
2015-05-28 02:49:00,69.4,68.2,30.10,NW,315,0.0,1.0,96,0.00,,,0.00,meteobridge,2015-05-28 07:49:00,
2015-05-28 02:54:00,69.3,68.0,30.10,NW,318,0.0,0.0,96,0.00,,,0.00,meteobridge,2015-05-28 07:54:00,
2015-05-28 02:59:00,69.3,68.0,30.10,NE,39,0.0,0.0,96,0.00,,,0.00,meteobridge,2015-05-28 07:59:00,
2015-05-28 03:04:00,69.3,68.4,30.11,ESE,117,0.0,1.0,97,0.00,,,0.00,meteobridge,2015-05-28 08:04:00,
2015-05-28 03:09:00,69.3,68.4,30.10,ESE,117,0.0,0.0,97,0.00,,,0.00,meteobridge,2015-05-28 08:09:00,
2015-05-28 03:14:00,69.1,68.2,30.10,ESE,117,0.0,0.0,97,0.00,,,0.00,meteobridge,2015-05-28 08:14:00,
2015-05-28 03:19:00,69.1,68.2,30.11,ESE,117,0.0,0.0,97,0.00,,,0.00,meteobridge,2015-05-28 08:19:00,
2015-05-28 03:24:00,69.1,68.2,30.11,NE,46,0.0,0.0,97,0.00,,,0.00,meteobridge,2015-05-28 08:24:00,
2015-05-28 03:29:00,69.1,68.2,30.11,NE,46,0.0,0.0,97,0.00,,,0.00,meteobridge,2015-05-28 08:29:00,
2015-05-28 03:34:00,69.1,68.2,30.11,NE,47,0.0,0.0,97,0.00,,,0.00,meteobridge,2015-05-28 08:34:00,
2015-05-28 03:39:00,68.7,67.8,30.11,NE,47,0.0,0.0,97,0.00,,,0.00,meteobridge,2015-05-28 08:39:00,
2015-05-28 03:44:00,68.5,67.3,30.11,NE,47,0.0,0.0,96,0.00,,,0.00,meteobridge,2015-05-28 08:44:00,
2015-05-28 03:50:00,68.4,67.1,30.11,NE,47,0.0,0.0,96,0.00,,,0.00,meteobridge,2015-05-28 08:50:00,
2015-05-28 03:55:00,68.2,67.3,30.11,NE,47,0.0,0.0,97,0.00,,,0.00,meteobridge,2015-05-28 08:55:00,
2015-05-28 04:00:00,68.0,67.1,30.12,NE,46,0.0,0.0,97,0.00,,,0.00,meteobridge,2015-05-28 09:00:00,
2015-05-28 04:05:00,67.8,66.9,30.11,NE,47,0.0,0.0,97,0.00,,,0.00,meteobridge,2015-05-28 09:05:00,
2015-05-28 04:10:00,67.8,66.9,30.11,NE,46,0.0,0.0,97,0.00,,,0.00,meteobridge,2015-05-28 09:10:00,